RH
10 10 10 10 11 11 12 12 13 13 13 13 13 13 13 13 12 11 10 9 9 9 8 8 8 6 4 3 3 3 3 3 3 2 5 11 10 7 8 10 11 13 15 16 15 13 12 15 26 34 42 50 58 65 67 76 78 77 90 93 93 92 75 77 91 83 84 96 100 96 93 96 96 95 92 88 86 79 78 76 76 75 71 71 70 70 74 73
10 10 10 10 10 10 11 11 11 11 11 12 12 13 13 13 12 11 11 10 10 9 8 8 7 5 2 3 3 3 3 3 3 2 7 10 7 5 6 8 11 13 14 15 14 12 12 12 19 33 42 49 53 56 59 67 73 78 84 83 86 88 74 73 83 82 84 91 97 95 93 94 92 92 90 90 89 78 79 82 77 75 75 72 70 73 73 73
11 11 11 11 11 11 11 11 11 11 11 11 11 11 12 12 12 12 11 10 10 9 9 8 6 4 3 3 3 3 3 3 3 3 6 6 5 6 5 6 11 12 12 14 12 11 10 11 21 31 40 49 51 54 60 65 73 74 72 75 80 78 72 71 73 78 77 82 96 96 92 92 88 89 89 91 90 81 83 84 79 77 77 74 73 75 74 74
11 12 11 12 12 12 12 11 12 11 11 11 10 11 11 12 12 12 11 11 11 9 9 8 5 3 3 3 3 4 4 4 3 2 3 3 5 6 6 7 9 10 11 12 10 10 9 11 22 31 42 51 50 54 62 66 70 70 69 74 74 67 67 71 69 72 74 78 91 94 92 90 86 89 88 85 87 88 84 77 75 75 74 74 75 76 74 74
12 13 13 13 13 13 13 13 13 12 12 12 11 11 11 12 12 12 12 11 11 10 9 7 5 4 4 4 4 4 4 5 4 3 3 3 4 5 6 8 9 11 11 11 10 10 10 10 17 29 40 42 44 53 57 58 58 63 67 61 61 60 64 73 70 69 74 80 86 90 90 86 84 87 86 81 80 83 78 71 71 70 68 71 75 77 77 75
12 13 14 14 14 15 14 14 14 13 13 12 12 12 11 12 12 13 12 11 11 10 9 7 5 5 4 4 4 5 5 7 8 7 6 4 3 4 7 8 9 11 10 11 9 9 10 9 14 27 34 31 39 47 44 49 53 55 57 50 53 57 62 73 70 67 73 79 84 86 82 81 85 83 82 82 74 69 68 66 69 70 68 69 76 80 79 77
12 13 15 16 16 17 16 16 16 15 14 13 13 12 12 12 12 13 12 12 11 10 10 8 7 5 5 5 4 5 5 8 11 10 8 5 5 4 5 8 10 10 10 10 9 9 9 12 18 24 29 29 32 34 31 42 51 51 51 52 57 55 59 69 67 68 72 75 78 77 75 80 85 80 81 82 68 62 65 65 68 72 71 71 78 82 78 76
17 16 16 17 18 19 19 19 18 17 16 14 13 13 13 13 13 13 13 12 11 11 10 9 9 6 5 5 5 7 5 7 12 10 9 7 6 6 5 6 8 8 9 9 9 10 8 12 19 21 26 28 25 25 26 37 47 48 47 51 58 56 59 64 65 72 73 72 73 73 76 81 82 78 79 75 65 66 68 66 67 73 76 74 76 79 78 75
23 22 21 21 21 22 22 21 21 19 18 15 14 13 13 13 13 13 13 13 11 11 10 10 11 8 6 5 7 9 5 7 10 10 10 9 7 7 5 5 7 7 8 9 8 9 10 14 19 22 24 24 23 22 23 32 38 37 40 49 58 60 63 62 65 73 73 72 72 74 80 81 78 79 76 63 58 68 72 69 66 70 78 79 76 76 77 75
29 28 27 26 25 25 25 24 23 21 20 17 15 13 13 13 14 14 13 13 12 11 11 11 11 11 10 7 9 13 10 9 12 12 12 11 10 9 8 6 6 7 7 8 8 8 11 14 18 21 20 20 21 19 22 28 26 26 39 54 60 62 66 62 63 70 71 72 70 74 86 83 76 83 80 60 53 61 72 75 68 68 75 81 80 75 74 74
34 32 31 29 28 27 27 26 25 23 21 19 15 12 12 13 14 14 13 13 13 11 11 12 12 13 13 10 11 15 15 14 15 14 13 12 12 12 12 10 8 8 7 7 8 8 8 9 14 18 20 20 19 17 20 20 19 28 45 60 63 62 67 64 64 71 71 72 70 71 81 79 79 87 78 59 54 56 66 77 72 68 71 77 83 79 74 72
39 36 34 32 30 29 27 26 25 23 21 19 16 12 12 13 14 14 13 13 13 11 11 12 13 13 15 13 9 13 18 17 16 15 14 13 12 13 14 12 10 9 7 7 7 7 7 9 14 19 20 19 19 19 18 17 28 43 53 66 68 64 71 68 66 72 72 73 70 67 75 82 87 84 66 57 59 59 65 76 75 70 69 71 79 82 76 71
41 40 38 34 31 29 27 26 25 23 21 19 14 11 12 12 13 13 12 13 13 12 11 12 14 14 17 15 6 10 19 18 16 16 15 12 11 12 14 13 10 8 7 7 7 7 9 12 16 20 20 19 20 18 16 20 38 50 52 67 73 73 80 71 66 74 73 75 70 66 79 89 88 76 64 63 62 64 70 75 78 74 70 70 74 81 80 73
41 41 40 37 33 29 28 26 24 23 20 15 11 11 12 12 12 12 12 13 13 12 11 12 14 15 19 15 4 11 20 19 17 16 12 10 9 9 12 13 9 7 6 6 7 6 7 13 18 20 19 19 17 15 18 23 41 52 49 65 73 76 84 67 64 79 77 77 69 65 83 88 81 71 65 68 65 66 73 76 81 78 72 71 71 76 80 75
39 39 38 38 35 30 27 26 24 22 17 12 10 10 11 11 11 10 11 13 13 12 12 13 15 18 23 15 4 12 20 19 18 16 12 10 8 9 14 16 11 6 5 6 6 6 12 17 20 20 17 17 15 19 25 26 47 56 45 57 63 67 81 66 63 78 75 79 72 65 86 88 74 67 62 66 68 66 70 76 82 81 77 74 71 73 76 76
37 36 36 37 37 32 27 25 24 20 14 11 9 10 11 12 13 13 13 13 14 13 13 14 15 20 25 19 9 12 19 19 16 15 14 10 9 14 17 17 14 8 4 6 8 12 18 19 19 19 15 16 19 24 27 34 56 57 39 46 51 56 72 66 65 73 68 79 79 69 85 81 61 64 69 67 68 69 72 78 83 83 80 77 74 72 72 74
37 35 34 34 35 35 28 25 23 17 14 13 12 16 19 20 22 20 18 18 21 23 21 20 20 20 19 17 13 13 16 17 14 14 14 10 10 14 15 14 15 12 7 10 15 17 19 18 18 18 18 21 25 26 27 40 52 46 37 40 40 45 57 61 66 69 67 77 83 77 82 76 60 69 81 73 68 72 77 80 83 84 82 80 77 75 73 71
38 36 35 33 34 35 30 25 21 15 18 19 17 23 27 30 31 27 25 27 28 30 30 28 25 19 13 12 15 16 16 16 14 14 13 11 10 11 13 13 15 16 14 16 18 18 18 17 18 20 25 26 25 27 29 34 32 28 32 32 30 34 40 52 61 63 68 74 81 84 85 80 71 72 79 79 75 75 78 79 80 83 82 81 79 77 75 72
38 37 35 33 33 35 32 25 18 16 21 23 22 25 27 30 33 30 29 29 28 28 30 28 22 16 13 13 15 17 17 17 16 13 12 12 10 10 12 12 14 17 18 20 19 18 17 18 20 22 27 25 22 27 27 25 24 21 25 25 25 27 27 38 51 57 64 70 78 84 83 78 73 72 76 80 81 79 79 80 80 83 83 83 82 79 77 74
39 38 36 33 32 34 33 25 18 19 23 23 24 26 25 27 31 31 27 24 23 22 22 22 20 17 17 17 17 18 17 17 16 13 12 13 11 11 12 13 17 19 22 24 21 17 16 19 25 24 24 24 22 24 22 21 23 20 21 23 23 24 21 24 41 55 59 67 76 76 76 76 72 74 76 77 83 84 82 82 83 83 82 82 81 80 78 72
40 39 37 34 31 33 33 25 18 20 23 23 23 25 27 28 30 30 26 21 18 19 19 18 18 18 18 18 19 18 17 17 16 14 13 13 13 12 12 16 22 27 28 24 19 17 17 20 24 22 22 23 22 22 21 19 20 18 20 22 20 22 23 27 46 58 56 61 69 71 75 75 68 68 71 75 81 83 81 81 82 81 81 80 78 77 73 66
40 39 38 34 31 32 33 25 18 21 24 24 23 24 27 29 29 28 30 28 21 17 18 17 17 18 17 18 19 18 19 20 15 14 14 13 12 12 14 22 29 32 27 21 21 23 24 23 20 18 20 19 19 19 18 17 17 17 19 19 20 24 22 34 56 60 55 53 57 70 74 70 70 69 71 76 77 76 76 76 76 77 80 79 76 73 68 65
40 39 38 36 31 31 33 24 18 21 22 24 25 24 25 26 26 26 29 32 27 17 15 15 15 15 16 16 18 18 19 21 17 14 14 11 10 12 17 25 30 29 23 22 27 26 24 21 17 16 17 16 16 17 16 17 16 16 18 18 21 22 16 33 59 58 52 47 52 73 74 69 75 71 67 70 69 68 67 70 72 73 75 74 70 68 67 66
42 40 39 37 31 30 32 24 18 20 21 22 24 23 24 23 23 25 25 31 33 23 16 16 15 13 15 16 16 18 18 19 17 14 13 10 10 14 19 24 27 26 23 25 27 25 22 19 15 15 15 15 15 15 15 16 16 16 18 19 19 21 25 43 59 53 47 47 54 67 67 72 78 67 63 65 65 65 61 61 65 66 68 69 70 70 68 67
43 40 40 38 31 29 30 25 20 20 19 19 21 23 24 21 21 23 26 36 42 33 21 18 16 13 13 16 16 17 17 17 16 15 13 11 12 17 19 19 22 25 24 23 23 23 23 17 14 14 15 15 14 15 16 14 17 17 18 19 17 29 47 53 53 51 52 55 55 52 52 67 78 69 65 68 67 67 63 64 63 58 62 64 66 67 66 67
42 41 40 38 33 29 28 26 22 18 17 15 17 24 25 24 24 22 30 49 50 34 22 17 16 14 14 16 15 15 17 16 14 14 14 13 14 17 19 17 18 23 23 20 20 21 21 16 13 14 13 14 14 15 16 14 16 18 17 17 21 41 55 49 48 54 60 58 48 43 45 55 65 63 64 71 72 69 68 74 70 59 59 62 60 58 59 63
42 41 39 38 34 29 28 26 21 16 14 13 14 20 22 25 24 18 33 57 49 27 19 17 14 14 15 15 15 17 19 17 14 14 13 15 16 14 19 20 15 17 17 16 19 19 16 14 12 14 12 13 15 13 15 16 18 19 17 16 26 45 50 45 47 48 52 52 46 50 48 44 55 58 60 69 69 66 68 72 75 68 63 62 60 57 56 59
43 40 39 37 32 30 29 24 20 15 13 13 12 12 16 22 22 22 39 53 39 20 15 15 13 13 14 15 16 16 15 14 15 14 13 14 15 13 17 20 17 17 13 14 21 18 14 12 11 13 12 13 15 13 15 16 17 19 17 16 22 32 42 46 46 40 38 37 43 57 47 37 59 69 66 67 62 65 68 65 71 72 66 64 63 60 58 58
42 40 39 34 28 29 27 21 19 14 12 13 12 10 12 13 16 30 47 43 25 17 15 12 13 14 13 15 16 14 12 12 13 14 13 13 14 12 14 15 15 15 11 13 19 15 12 10 10 12 11 13 15 15 17 16 14 15 15 19 18 23 36 41 41 37 29 25 32 47 42 36 60 75 68 57 52 63 68 64 70 69 64 68 65 61 59 58
41 40 36 29 26 25 21 19 17 15 14 12 13 14 11 14 28 42 47 36 21 16 15 12 14 14 14 17 17 15 14 12 12 14 13 14 13 11 12 11 10 14 17 19 17 13 12 10 12 13 10 13 13 12 16 15 15 13 14 18 16 25 37 42 49 38 22 26 31 36 40 36 46 65 68 53 49 60 61 61 71 72 70 74 68 62 59 59
40 37 31 27 25 21 18 16 14 14 14 13 17 17 13 27 49 52 38 28 22 18 15 15 16 15 16 20 18 15 15 13 12 14 13 14 14 12 14 13 13 19 27 26 17 15 14 10 14 14 9 12 10 9 13 14 16 16 20 18 11 25 31 31 51 42 22 35 39 37 43 35 35 50 58 55 54 61 60 57 65 74 80 79 70 64 61 62
38 33 29 26 22 20 19 14 12 12 10 15 19 18 25 35 40 42 33 24 24 21 16 17 17 16 16 18 17 15 15 13 13 15 16 17 16 15 19 21 20 20 25 27 18 15 15 12 14 11 9 12 8 11 13 13 16 17 27 28 19 33 31 22 43 40 26 35 35 36 38 35 46 50 50 57 54 54 58 51 53 67 80 79 70 64 62 63
35 30 27 25 22 23 23 14 10 8 8 18 20 24 48 51 32 35 37 27 23 18 16 17 17 18 17 15 16 14 13 13 15 17 16 17 18 17 17 21 21 17 20 24 18 16 16 14 14 9 9 11 8 12 13 13 15 12 22 29 25 37 31 24 42 37 31 38 34 36 35 37 49 44 50 71 66 60 59 50 50 61 70 73 68 63 60 61
33 29 26 28 28 30 28 16 7 8 11 18 23 30 46 46 34 38 39 31 26 17 13 17 17 16 16 16 17 14 12 13 16 17 16 17 18 18 17 16 17 17 19 20 16 18 18 15 15 10 9 10 8 11 13 14 15 11 18 21 21 30 22 20 34 23 21 39 40 36 32 35 41 34 48 72 73 73 69 60 61 64 65 67 66 63 59 60
31 29 29 33 34 33 31 19 8 12 16 21 33 39 39 39 39 39 34 29 25 18 14 16 17 17 16 17 17 12 11 14 16 17 16 17 19 21 19 16 16 17 17 19 19 18 17 16 16 12 9 10 9 10 13 14 13 13 16 14 13 21 22 26 32 22 23 37 44 40 36 45 50 46 62 75 74 80 78 70 70 70 70 68 65 64 60 59
30 30 34 36 34 33 29 19 12 15 20 25 30 29 34 39 34 32 32 25 20 17 16 17 18 19 18 17 17 12 10 14 17 18 17 17 18 19 18 16 17 16 15 21 22 17 14 13 13 12 10 10 9 10 11 10 12 13 13 13 12 14 23 27 25 33 42 38 40 45 49 61 53 42 63 80 80 85 86 84 82 80 77 69 64 63 60 59
28 31 38 36 33 34 26 16 15 16 20 27 27 24 35 35 24 31 35 22 16 17 18 21 19 18 18 16 16 14 11 13 15 18 19 17 16 17 16 15 14 13 14 17 17 16 15 14 14 12 9 9 9 9 9 9 11 12 10 13 15 10 16 21 19 37 49 43 49 54 53 61 51 39 58 75 77 80 87 93 92 87 81 73 68 64 61 63
28 31 38 37 35 34 26 17 16 18 21 32 44 48 45 30 19 26 26 16 18 18 16 20 17 15 18 16 15 14 12 13 14 18 20 16 17 16 13 13 12 12 12 10 11 15 13 13 17 15 10 10 11 9 10 10 8 10 9 10 12 13 16 17 16 30 42 47 60 63 55 57 58 56 58 62 69 75 83 95 96 91 86 78 73 68 66 68
30 32 38 38 36 34 29 21 18 21 24 32 48 50 36 27 23 21 19 18 21 18 15 16 13 14 17 15 15 14 12 14 16 19 19 15 17 15 11 12 11 11 12 9 12 16 14 14 17 17 12 10 13 14 12 12 9 8 10 9 12 20 23 17 13 25 42 56 60 56 52 52 56 62 56 53 69 79 83 93 95 90 86 79 73 68 66 66
30 35 40 38 36 36 31 24 21 28 30 31 43 42 28 27 25 20 20 20 20 20 18 17 16 15 15 13 15 13 12 16 17 17 17 14 15 14 11 11 10 12 11 8 12 16 14 14 15 18 16 9 13 15 11 13 12 8 10 11 10 13 16 14 13 22 44 66 67 53 49 51 53 53 47 48 65 77 80 86 90 88 84 79 71 63 62 63
30 39 42 34 34 37 30 25 27 36 40 37 39 38 30 28 27 24 23 21 21 19 15 17 21 20 16 14 15 14 13 15 16 15 14 13 14 13 10 9 11 12 10 10 12 11 11 15 17 18 15 9 13 16 13 13 12 11 12 12 12 11 13 16 15 20 37 57 64 53 46 50 49 43 40 45 59 72 76 79 85 85 79 77 71 60 60 63
33 41 40 33 36 38 29 32 40 41 42 38 33 31 29 30 32 29 21 18 20 18 14 17 20 22 23 19 18 16 13 14 15 14 13 12 12 12 9 8 9 9 11 13 12 13 18 20 16 16 17 14 13 15 16 14 11 12 11 11 13 11 15 20 15 17 26 38 49 49 42 44 47 46 42 41 53 67 69 70 77 79 72 68 67 61 60 64
37 41 38 34 38 37 32 42 51 46 41 37 32 30 28 28 31 28 22 21 19 14 16 18 18 22 24 21 21 18 13 13 14 13 13 13 12 10 8 8 8 9 11 11 11 17 22 19 18 31 43 40 28 22 21 18 12 9 8 11 11 8 14 19 17 25 31 33 40 40 37 42 47 53 50 43 52 67 68 64 66 72 72 63 58 60 62 67
40 43 40 37 38 37 35 40 44 45 45 42 37 33 29 25 25 24 24 23 18 14 19 21 20 23 23 22 25 25 18 13 12 13 12 11 11 11 9 7 8 10 9 10 14 14 16 24 29 35 43 41 37 34 28 22 20 15 13 15 11 11 15 12 17 33 34 34 40 38 41 50 47 47 55 56 61 70 72 66 60 65 73 64 53 55 61 70
45 47 42 36 36 36 35 36 39 46 52 51 46 40 33 28 24 23 23 21 17 18 24 26 24 25 28 28 30 33 29 18 15 20 18 14 14 15 14 8 5 12 13 11 15 12 15 32 39 37 36 32 34 35 26 22 23 18 20 26 22 16 12 10 18 28 25 27 39 43 45 45 40 43 55 63 69 73 75 71 63 66 68 59 51 52 59 70
53 57 53 46 38 34 36 38 42 50 58 58 53 44 37 34 29 24 23 20 19 21 28 34 33 31 35 36 34 37 37 29 27 32 31 25 21 19 19 15 15 27 28 14 12 20 29 38 48 55 48 37 43 44 30 25 25 19 23 37 39 24 12 16 21 20 23 27 36 52 49 28 26 40 50 60 70 73 74 74 73 75 66 51 48 51 57 68
55 62 66 63 50 42 44 45 46 54 57 54 52 46 39 37 34 30 24 21 23 24 26 33 38 38 39 40 40 39 40 38 34 37 38 36 33 27 19 17 22 31 31 15 11 28 37 32 40 49 36 29 42 40 29 30 32 32 37 45 49 36 21 23 21 15 23 22 25 55 59 26 20 36 42 54 68 71 74 76 73 68 56 47 48 51 56 65
55 59 63 66 64 60 58 51 52 60 56 51 58 57 43 37 39 36 30 27 28 29 32 36 39 40 40 41 44 44 47 47 40 38 40 37 39 36 23 18 21 20 19 17 17 31 37 26 25 33 28 29 35 28 27 36 37 41 48 48 51 49 38 37 35 28 26 16 15 42 51 30 26 35 38 49 61 66 72 70 59 52 51 51 52 54 57 63
56 60 59 61 64 63 58 51 54 60 56 55 63 56 41 39 41 36 33 35 36 35 39 42 40 38 38 43 51 52 48 46 38 36 40 35 35 38 30 23 23 17 17 22 23 29 32 27 29 32 28 29 33 30 33 40 40 44 50 48 50 55 52 50 50 49 43 33 32 42 44 37 37 44 48 48 48 57 68 65 57 58 59 54 51 54 57 60
56 59 57 60 63 61 58 54 55 61 60 57 54 45 39 42 40 35 36 39 40 39 38 39 42 42 37 39 47 46 41 43 40 34 37 38 35 38 36 29 24 24 28 30 29 26 23 29 46 50 34 27 34 37 36 38 40 41 44 47 50 55 58 58 60 65 64 61 59 52 42 38 43 53 64 64 58 66 74 71 67 67 59 47 47 53 55 57
54 52 52 62 70 67 62 56 56 66 70 63 54 46 44 42 37 39 41 36 36 42 41 38 41 44 41 37 38 35 33 40 40 31 32 34 29 29 31 28 24 28 35 35 32 34 31 30 45 53 39 27 31 35 35 36 37 36 40 44 49 58 64 63 64 68 68 70 71 55 39 42 54 63 72 77 77 78 79 79 79 73 56 42 43 49 50 54
53 51 54 63 67 66 64 62 64 69 66 59 54 48 43 39 36 40 42 35 32 38 41 40 40 43 43 37 33 29 27 30 31 27 27 27 24 23 24 24 23 27 36 40 37 44 49 36 33 47 42 29 32 38 40 41 40 41 44 41 44 57 61 59 63 66 65 71 74 62 52 61 73 72 71 78 81 81 81 79 71 59 48 42 42 45 48 51
Wind_Speed
11 11 10 10 10 10 10 9 9 9 9 9 9 9 9 9 8 7 6 6 6 7 8 8 8 8 8 7 8 11 12 13 13 16 19 14 10 12 9 7 9 7 5 6 6 6 5 3 5 6 7 9 8 6 8 11 7 1 1 1 2 3 1 2 4 4 4 4 4 8 9 3 3 5 8 9 8 11 11 10 8 7 14 12 11 23 24 22
11 11 10 10 10 10 10 10 9 9 9 9 9 9 9 9 9 8 7 7 7 7 8 8 8 8 7 5 7 9 11 12 13 18 18 10 9 14 13 11 10 8 6 6 6 6 5 3 5 7 8 7 5 5 5 7 9 5 2 1 3 3 2 2 7 7 5 7 8 10 9 3 4 8 10 6 6 13 10 8 11 14 14 11 18 25 22 24
11 11 11 10 10 10 10 10 10 10 9 9 9 9 9 9 9 8 7 7 7 8 8 8 8 8 6 4 6 7 9 10 13 19 15 10 12 14 14 14 12 9 7 7 6 6 4 1 3 6 7 6 5 6 5 5 7 7 2 1 5 4 0 3 11 9 6 13 11 7 7 4 6 8 7 5 6 8 7 9 12 15 18 19 25 25 23 24
11 11 11 11 10 10 10 10 10 10 10 10 9 9 9 9 10 9 8 7 7 8 8 8 8 7 6 4 4 6 6 6 12 16 13 13 15 15 16 14 12 10 9 8 8 7 4 1 2 4 6 6 6 7 6 8 7 5 5 2 4 2 2 3 11 11 10 17 12 7 6 3 7 6 5 9 7 1 6 13 15 18 24 28 29 27 25 24
12 12 12 11 11 10 10 10 10 10 10 10 10 10 9 9 10 9 8 7 7 8 7 7 7 7 5 3 4 5 2 3 6 11 11 15 16 15 16 14 13 11 10 10 9 8 6 3 3 4 5 5 4 5 6 12 11 4 6 7 5 2 2 4 11 13 16 16 11 9 5 3 7 4 6 11 6 2 10 16 17 20 24 28 30 29 26 25
12 12 12 12 12 11 11 11 11 11 10 10 11 11 10 9 9 9 9 7 7 7 7 7 6 7 5 3 4 5 5 0 3 7 10 15 16 16 15 14 14 12 11 12 10 9 7 5 6 5 5 4 3 5 5 12 14 3 4 7 5 3 2 8 11 14 19 15 12 10 5 5 6 1 5 10 2 1 12 18 16 19 23 27 30 30 28 26
14 13 13 13 13 13 12 12 12 11 11 10 11 11 11 11 9 9 9 8 7 7 6 6 6 6 5 4 4 5 9 5 3 7 8 12 15 15 16 15 14 13 13 12 11 10 7 6 8 7 4 2 3 5 6 9 15 6 4 3 5 3 5 11 11 14 17 15 13 11 6 6 5 0 2 11 7 2 9 18 17 19 22 27 30 30 29 26
15 14 14 14 14 14 14 14 13 13 12 11 11 11 11 12 10 9 9 8 8 7 6 5 6 6 5 4 3 4 8 7 5 6 6 9 11 12 16 16 14 14 13 12 10 9 7 6 7 6 2 2 3 5 5 4 10 7 4 3 7 6 8 10 10 13 14 12 13 11 6 6 7 1 3 11 11 1 6 18 19 20 21 26 31 31 30 28
16 15 15 15 15 16 16 16 15 14 13 11 11 11 11 12 11 9 8 8 7 7 6 5 6 6 5 4 4 5 7 8 6 6 6 7 8 8 13 16 16 15 14 12 10 9 7 4 4 2 3 4 4 7 5 3 4 8 8 7 10 9 10 10 9 12 11 10 13 9 4 4 7 2 5 10 12 5 7 18 23 22 22 25 30 31 31 30
17 17 16 16 16 16 17 17 17 16 15 13 11 11 11 12 11 9 9 8 7 8 6 5 6 6 6 4 3 2 7 9 7 7 7 7 6 5 9 12 14 14 14 12 11 11 8 3 3 5 7 5 4 9 5 2 4 5 7 9 12 11 10 10 9 11 9 6 10 7 4 3 5 3 3 5 10 10 9 17 25 26 24 23 26 30 32 31
18 18 18 18 17 17 17 18 18 17 16 14 12 11 11 12 11 9 9 8 8 8 7 6 6 7 6 5 4 4 8 9 8 8 7 6 5 3 5 8 10 11 12 12 12 10 8 6 6 7 5 4 8 10 5 3 8 1 13 11 9 11 9 9 9 9 8 3 7 6 4 1 3 3 7 5 8 11 11 17 24 27 28 25 22 26 31 33
18 18 19 19 19 18 18 18 18 18 16 15 14 12 12 12 11 9 9 8 8 7 7 6 6 7 7 8 9 7 9 9 9 9 9 7 5 3 4 6 9 9 11 12 11 8 6 5 6 6 5 6 8 6 6 6 3 9 14 7 4 6 4 7 7 9 9 2 6 6 3 2 2 6 13 9 8 9 10 16 22 27 29 27 23 21 26 32
19 19 19 19 19 19 19 19 19 18 17 16 15 13 13 12 10 9 9 8 7 8 7 7 7 7 8 9 9 9 10 11 11 10 10 8 5 5 5 6 8 10 11 12 10 7 5 3 5 8 9 7 4 3 7 5 8 9 6 5 3 6 4 6 7 8 8 1 8 9 1 5 6 12 13 8 11 11 12 17 22 26 28 28 25 19 20 26
20 20 20 20 19 20 20 20 20 19 17 17 15 13 12 11 9 8 8 7 7 7 6 6 7 7 8 7 5 12 14 12 12 11 9 7 5 5 5 5 7 10 12 12 10 8 6 5 7 10 10 7 6 5 5 4 6 4 3 3 3 2 4 5 6 10 6 2 10 10 1 5 6 12 13 9 12 15 15 19 21 24 27 27 26 22 19 21
21 21 21 20 20 20 20 21 21 19 18 16 14 12 11 9 8 7 7 6 6 6 6 6 6 6 9 8 5 14 16 14 12 10 8 5 3 4 3 2 4 8 11 11 9 7 6 5 7 8 7 6 5 4 3 4 4 3 2 3 2 3 3 5 6 13 7 3 11 9 1 6 6 7 12 14 15 17 19 20 21 22 24 26 27 26 22 20
23 23 22 22 20 19 20 21 21 19 17 14 12 10 7 5 4 4 4 4 4 4 5 6 6 5 6 6 5 13 16 15 11 9 10 5 3 4 3 2 1 5 9 9 7 6 4 5 5 4 4 4 2 3 4 4 3 4 1 1 2 3 3 3 3 11 10 4 7 7 1 3 4 4 10 17 18 20 20 19 21 21 23 25 26 27 26 24
24 25 24 23 21 20 21 21 21 18 14 11 8 5 4 3 2 1 1 1 1 3 5 6 6 6 5 4 4 9 13 13 10 9 10 7 4 4 2 2 2 3 7 7 6 5 3 3 2 2 2 3 2 4 4 4 3 4 2 0 3 3 2 1 3 6 11 6 5 7 3 4 3 2 11 18 20 21 20 19 21 21 22 23 25 26 27 27
24 26 26 25 22 20 20 20 20 15 10 9 6 3 4 3 1 4 4 1 0 2 5 6 5 3 4 5 4 7 9 9 11 12 11 10 7 4 4 1 2 2 4 4 4 3 2 2 1 0 3 4 4 5 3 1 2 3 3 3 4 3 2 4 3 6 11 6 5 6 6 10 5 0 10 17 21 22 21 20 20 21 21 22 24 26 27 29
24 26 27 27 24 21 20 19 18 11 7 8 5 2 4 3 2 4 3 2 4 3 3 4 5 2 2 4 4 5 6 7 10 14 13 11 10 8 7 4 3 2 2 2 2 2 2 0 1 1 2 2 1 4 4 6 5 3 4 4 4 6 5 5 4 7 13 8 5 9 8 8 3 3 8 16 20 20 18 17 17 19 20 21 23 25 27 29
25 26 27 28 25 22 19 18 15 8 6 6 2 2 2 3 1 1 5 10 10 9 8 9 9 9 7 3 2 1 4 8 10 14 14 11 11 10 8 5 3 1 2 3 2 1 2 1 3 3 4 4 4 6 6 5 4 3 4 4 5 6 6 4 3 6 13 7 5 9 7 7 3 3 7 14 17 14 14 14 16 18 20 22 24 25 27 29
25 26 27 28 26 22 19 16 11 6 7 6 2 1 4 6 2 3 9 10 7 7 10 10 11 14 11 6 3 3 2 7 8 11 12 11 12 9 6 4 2 0 1 2 1 2 3 2 4 4 6 7 6 6 4 2 3 3 3 3 5 5 5 4 2 5 11 5 2 4 5 9 5 3 5 11 12 12 17 17 17 20 20 22 24 25 26 27
26 26 27 28 27 23 18 15 9 4 6 6 5 6 8 8 4 4 7 7 9 8 8 8 10 15 13 8 6 3 3 4 5 7 10 12 12 9 5 3 4 2 2 2 0 4 3 3 4 4 5 3 3 4 2 2 3 2 2 2 4 4 2 3 5 3 7 2 3 3 5 7 4 3 6 11 13 14 20 22 20 21 20 22 24 25 26 25
27 27 28 28 27 23 17 13 6 2 4 4 6 8 8 6 5 6 5 5 11 10 7 9 11 13 11 7 6 5 4 3 3 5 10 13 13 9 6 5 4 2 2 3 4 1 1 4 3 2 2 4 1 0 5 4 3 1 1 2 4 3 1 2 3 3 4 1 0 4 4 5 3 2 4 10 15 12 14 19 18 18 20 23 25 25 26 26
28 28 29 28 27 23 17 11 4 2 2 2 3 5 5 5 5 7 6 4 6 7 5 6 9 10 9 4 4 6 4 3 2 5 12 15 13 8 5 5 4 2 1 2 6 3 5 5 3 2 4 5 4 5 5 4 5 4 3 3 4 2 1 2 2 4 2 3 1 4 2 5 3 1 2 5 9 9 10 14 16 18 20 21 22 24 25 25
29 29 29 29 28 23 16 9 4 3 4 3 2 1 2 4 5 8 6 2 3 5 3 2 5 7 8 5 5 5 2 3 5 6 12 16 13 7 3 4 4 1 2 3 4 2 7 7 5 5 5 6 4 5 1 3 4 6 3 6 5 4 6 6 7 6 4 4 2 4 3 5 5 1 3 2 2 7 7 9 15 20 20 20 23 24 25 24
30 30 30 30 28 24 15 7 6 7 7 6 5 5 3 3 5 7 4 3 2 4 1 2 3 5 9 7 6 5 2 3 6 7 13 16 13 7 3 2 2 2 4 4 2 2 4 5 4 3 4 4 3 4 3 5 1 4 3 6 6 9 11 9 8 5 3 2 3 3 4 3 6 4 3 3 3 6 5 6 12 18 20 21 24 25 25 24
30 31 31 30 28 24 16 9 10 10 7 6 7 8 7 5 6 8 3 4 2 2 1 2 2 7 9 6 8 8 1 3 5 6 13 17 13 8 5 1 1 2 3 4 1 2 2 3 4 1 3 3 3 4 5 7 6 3 4 7 9 10 11 10 8 3 2 2 3 4 4 1 4 4 4 3 4 5 6 6 9 15 19 20 23 23 22 22
29 31 32 30 27 22 16 12 11 9 5 4 6 7 7 6 6 4 2 3 1 0 2 2 2 7 8 6 12 8 1 3 5 5 14 17 13 7 4 4 5 4 2 6 3 5 1 1 1 2 1 2 4 5 6 7 4 5 3 7 6 7 9 8 7 3 1 2 3 4 2 2 4 6 4 2 1 4 7 7 8 13 18 18 19 20 18 18
29 31 32 29 24 18 14 12 10 6 3 3 2 4 6 5 3 0 3 2 0 0 2 3 3 6 6 6 10 8 0 1 2 6 12 15 13 5 1 6 6 4 1 4 4 6 3 3 3 4 2 3 7 6 6 8 3 2 4 7 4 5 5 3 5 4 3 3 3 5 1 2 4 5 4 3 2 4 7 6 5 10 14 15 15 16 15 14
28 30 30 26 21 15 13 11 8 4 2 3 2 3 4 3 1 3 1 1 1 1 1 4 3 4 5 5 3 4 2 2 1 7 9 9 12 6 2 5 5 4 1 3 1 6 6 6 4 3 5 5 5 4 5 7 3 2 5 5 5 6 5 4 3 4 3 1 5 6 2 4 2 5 2 1 1 4 5 5 4 5 9 10 12 13 13 12
27 29 27 22 17 13 12 10 6 4 2 2 2 2 4 2 3 4 1 0 1 1 1 2 1 3 6 5 1 1 1 2 1 7 5 3 7 3 3 3 2 3 3 4 2 5 7 4 3 4 6 4 1 1 1 1 3 4 3 3 4 4 3 4 5 4 4 2 5 5 3 5 1 4 3 4 6 5 3 3 5 2 8 10 11 12 11 11
27 26 22 17 13 10 11 9 6 4 3 1 1 4 4 1 2 1 1 2 1 1 2 2 1 3 5 4 2 2 1 1 1 5 4 3 4 4 2 3 3 3 3 2 2 4 4 4 4 4 5 5 4 2 4 5 6 5 4 5 5 3 3 3 3 3 1 3 3 0 2 3 3 5 4 7 7 5 5 6 6 1 9 11 11 12 11 10
25 22 16 13 12 11 11 10 7 3 1 2 3 3 3 4 1 1 1 2 1 2 1 2 2 3 6 4 1 2 1 1 2 2 2 3 3 4 3 2 5 4 1 3 0 3 3 5 5 3 3 4 6 3 1 3 3 3 3 4 4 2 3 2 3 2 1 3 2 1 2 1 3 3 5 6 6 7 6 3 2 2 8 11 12 11 10 9
23 18 11 10 12 13 14 12 7 2 1 2 2 2 3 3 0 1 1 3 2 0 0 2 3 4 5 3 3 3 2 1 2 3 2 3 3 3 4 2 3 4 3 2 1 2 2 3 4 2 1 1 4 5 5 4 2 2 2 5 4 3 3 1 2 0 1 3 3 3 1 2 2 2 5 5 4 5 5 6 7 7 7 10 12 11 10 9
20 12 7 9 12 14 15 13 7 2 1 1 2 3 2 1 2 1 1 3 2 2 3 2 4 4 1 1 3 2 3 1 1 4 2 3 4 4 4 4 3 3 4 2 2 1 3 3 7 4 1 3 3 3 5 6 2 1 2 3 1 3 5 3 3 4 3 1 2 3 1 3 3 3 4 3 3 6 9 10 11 11 10 11 12 10 9 9
16 7 4 8 12 14 16 13 5 3 2 2 4 3 2 3 2 2 1 2 2 2 3 3 4 4 1 2 3 2 1 1 2 3 1 2 3 4 4 4 5 5 4 4 2 0 2 3 6 4 2 2 3 4 4 3 2 0 1 1 3 3 7 5 1 1 2 2 2 2 2 5 3 2 4 4 4 6 7 9 11 12 11 11 11 11 10 9
15 7 5 9 12 14 16 12 5 3 4 3 4 1 3 3 3 4 1 2 3 2 3 2 1 2 1 1 2 2 1 0 1 2 1 1 2 4 4 3 5 9 8 4 2 2 3 2 6 2 2 5 3 6 4 3 3 3 1 3 3 2 5 4 2 3 4 1 3 2 1 4 2 0 5 5 3 3 4 6 9 9 11 12 12 12 11 10
17 8 4 8 11 13 14 11 7 4 4 3 2 2 2 2 4 5 3 3 2 1 3 3 2 2 3 2 3 2 2 2 1 2 2 1 3 5 5 3 5 10 11 7 1 1 4 1 7 3 1 5 2 5 4 5 3 5 4 4 2 2 1 2 2 1 1 0 3 4 2 3 2 3 4 2 3 5 3 2 5 7 10 12 12 12 11 10
18 7 4 7 9 12 13 11 8 6 4 3 1 2 1 3 6 7 9 6 1 1 2 3 2 2 3 4 4 2 3 3 3 2 3 2 3 3 5 4 4 8 12 11 5 1 3 2 5 5 3 3 3 3 1 3 3 5 4 2 2 3 4 2 2 2 3 2 2 3 4 3 5 5 5 6 8 7 5 3 3 6 10 13 13 13 12 12
14 4 3 6 8 10 13 11 8 5 3 1 2 2 2 4 8 12 12 5 3 2 2 3 2 2 3 4 3 2 3 4 5 3 2 3 3 3 5 6 3 3 6 6 3 2 2 3 3 5 3 1 1 1 5 6 2 2 2 1 2 1 2 2 1 1 3 4 2 0 2 5 6 4 6 8 8 8 7 5 4 6 9 11 12 13 13 13
11 3 2 7 7 10 13 9 5 3 2 1 1 2 3 4 7 13 13 5 6 6 5 4 3 3 4 4 4 4 3 3 5 4 2 3 3 3 7 10 8 6 4 3 1 3 2 2 2 3 4 1 4 5 5 7 6 5 3 3 3 3 3 3 1 3 2 4 4 4 1 7 6 3 5 7 7 8 9 8 8 8 10 11 12 13 14 15
10 2 4 9 6 9 11 5 2 3 1 1 4 6 8 6 5 9 10 5 4 5 4 4 3 3 4 3 3 4 4 3 4 4 3 4 5 4 5 10 14 13 8 3 3 4 3 3 1 2 2 3 7 6 1 5 5 6 3 2 3 4 4 5 2 3 2 2 2 4 1 6 5 3 3 6 8 11 13 13 12 11 11 12 12 14 15 16
11 4 5 8 4 6 9 3 3 5 1 5 9 8 8 6 3 5 6 4 2 1 1 2 1 1 1 2 2 3 4 3 3 4 3 3 5 5 4 9 14 12 7 3 3 3 2 3 1 3 4 4 6 5 3 3 4 4 1 1 4 3 3 6 5 3 3 2 2 3 1 5 5 5 1 6 10 13 14 14 13 13 12 12 14 15 15 16
13 6 5 7 2 3 5 2 2 4 4 8 8 6 7 5 4 4 5 4 4 1 1 2 1 2 1 1 2 3 3 2 2 3 2 2 3 4 6 14 15 8 4 3 5 6 3 1 3 2 4 5 6 6 6 5 4 1 2 2 2 4 5 4 2 3 3 4 4 5 2 6 5 5 4 7 9 10 12 13 13 13 13 13 14 16 16 18
11 4 4 7 4 3 4 3 2 2 4 6 5 6 8 4 4 7 6 5 5 2 0 3 2 2 1 1 3 3 2 2 2 1 1 1 1 2 5 17 15 7 5 4 8 10 5 2 4 4 3 2 1 2 2 3 2 1 2 4 3 3 6 4 2 4 1 3 4 5 4 6 5 3 4 5 7 7 9 12 11 11 13 14 15 17 18 19
7 2 4 6 5 4 5 5 6 3 2 4 4 5 6 4 8 11 5 2 6 6 3 3 3 2 3 4 5 5 6 3 2 3 3 2 3 3 4 13 11 4 5 8 10 9 4 2 3 5 6 6 6 5 4 1 2 2 4 6 6 1 4 6 5 2 2 4 2 5 6 3 6 2 2 2 6 7 8 11 12 12 14 16 17 18 19 20
5 2 3 4 3 4 5 8 10 6 3 3 1 3 6 5 6 8 4 3 6 6 3 5 6 4 3 4 4 4 5 5 5 4 2 2 4 3 5 9 7 4 9 9 6 5 4 4 2 4 4 2 5 4 1 3 5 2 4 6 8 4 4 7 4 2 4 6 2 7 5 3 6 4 1 3 4 5 8 14 17 17 18 18 18 18 20 20
4 1 1 3 2 1 2 6 10 8 5 3 1 2 6 6 5 5 5 6 7 5 3 4 8 6 3 2 3 3 5 5 6 4 2 2 3 4 6 7 7 5 5 4 4 4 6 3 1 3 6 4 2 2 3 6 5 3 5 6 7 6 7 6 3 1 2 5 4 7 4 5 4 5 4 5 6 7 12 19 21 21 20 19 19 20 22 22
4 1 1 3 2 3 3 7 9 5 4 3 2 3 5 6 7 5 4 5 6 6 4 3 6 8 6 4 5 4 4 3 4 3 2 2 4 3 4 4 5 7 6 4 4 3 4 2 1 3 7 7 7 6 3 7 7 6 7 7 6 6 7 6 3 1 0 3 4 4 3 4 4 4 7 6 10 13 15 20 22 21 20 20 21 22 23 22
4 2 3 4 3 4 5 7 5 2 3 4 2 3 4 3 6 7 4 2 2 5 4 4 3 7 5 6 7 4 0 4 4 2 1 2 3 2 2 1 2 6 7 4 2 3 3 2 1 3 7 5 7 5 2 6 10 9 8 8 7 5 6 6 3 3 3 2 5 3 3 3 4 4 6 4 13 17 17 19 21 21 21 22 23 24 23 22
3 3 5 4 3 4 4 5 3 2 2 3 1 3 4 2 5 7 5 3 0 2 2 3 1 3 5 8 8 4 2 5 4 3 3 2 3 2 1 2 3 2 5 3 2 3 3 3 1 4 7 2 4 2 2 3 7 9 8 9 8 6 5 4 3 3 2 3 5 5 4 3 6 7 7 2 11 16 18 19 18 18 21 23 23 24 23 22
3 3 3 2 2 3 3 4 3 2 1 3 2 3 4 5 7 8 4 3 4 7 4 1 2 2 4 7 8 8 9 5 4 5 3 1 1 3 3 3 3 3 2 2 2 3 3 4 2 3 5 1 5 3 3 5 7 5 5 5 3 3 2 2 4 5 3 0 1 3 2 5 6 7 4 2 3 7 13 18 18 18 22 23 24 24 22 20
Wind_Direction
10 10 7 4 2 359 355 352 351 347 344 341 339 336 330 326 324 325 325 324 320 315 316 311 310 310 301 282 251 237 235 235 232 233 231 229 225 228 230 217 216 215 213 218 233 249 253 223 189 190 191 197 214 229 229 223 215 184 90 70 272 265 278 204 177 165 134 134 155 171 177 166 155 155 127 115 114 119 115 118 122 138 150 150 152 154 155 155
7 7 5 2 358 355 353 348 346 343 341 338 336 334 327 322 320 321 321 320 320 319 316 312 314 313 309 286 246 236 240 240 241 236 222 208 219 222 221 219 214 209 213 227 247 260 265 256 203 200 199 202 218 224 226 212 201 190 112 47 247 236 212 161 146 148 135 145 163 177 186 182 150 153 145 134 126 131 121 114 122 134 144 151 158 159 161 162
4 4 1 360 356 353 350 344 343 339 337 335 333 331 325 320 317 317 317 316 318 320 317 314 314 314 314 283 245 238 245 253 251 237 213 198 215 216 215 218 219 214 218 233 250 260 262 258 204 207 207 220 234 216 203 186 191 196 171 332 254 233 172 129 142 145 150 153 154 168 184 187 159 159 156 143 129 141 147 142 138 143 152 159 164 167 167 168
4 1 358 357 354 351 347 344 340 335 333 331 328 328 323 318 316 313 313 313 314 318 319 316 315 316 314 280 246 236 253 278 257 236 212 208 213 212 213 213 217 214 216 229 242 248 245 233 184 203 212 236 239 212 202 193 188 176 174 217 255 235 37 125 145 139 146 152 148 146 160 182 169 171 166 143 127 170 191 169 165 161 161 164 169 173 173 175
4 360 356 353 351 349 345 342 337 333 331 327 326 323 319 316 314 311 309 309 309 315 319 317 316 316 312 280 251 224 217 352 252 225 207 210 211 210 210 207 208 210 216 226 239 243 238 220 193 209 221 245 227 196 216 201 186 159 207 236 252 250 48 140 145 139 148 148 140 136 139 174 171 177 183 168 147 223 202 182 176 174 170 171 174 176 178 181
3 360 355 350 348 345 342 339 335 331 327 325 323 318 315 312 310 309 306 304 304 310 315 314 315 315 310 282 264 217 197 88 193 192 195 205 209 206 202 203 202 203 216 224 234 239 238 215 200 205 214 255 213 198 248 204 188 196 253 242 233 240 113 149 149 149 156 149 144 150 152 160 159 191 205 200 210 321 204 189 178 180 179 177 177 179 182 186
1 357 353 348 345 342 340 337 333 330 327 323 319 315 310 306 306 305 301 300 295 303 309 308 313 312 310 286 266 229 232 249 155 166 187 199 209 206 197 199 200 203 215 223 231 232 231 204 203 213 211 279 245 240 276 204 190 208 285 220 168 133 128 155 157 158 163 157 156 158 152 155 161 360 253 218 220 7 206 191 179 181 180 178 179 182 186 189
358 355 351 346 342 339 336 334 332 329 326 322 318 311 304 300 300 300 297 295 287 294 301 299 309 308 311 291 269 274 252 231 157 160 175 189 207 207 198 197 199 208 217 224 232 232 230 220 225 231 214 272 293 296 307 171 185 211 254 193 136 116 139 158 158 160 165 159 160 155 139 164 176 159 314 229 216 149 188 188 181 180 180 179 181 185 189 192
357 353 349 344 340 337 334 332 330 328 327 323 317 308 300 294 293 295 292 289 281 285 292 287 300 303 307 298 289 296 239 197 169 169 166 179 194 193 195 198 202 211 217 220 226 228 231 239 237 249 298 286 311 320 329 95 196 218 211 168 129 122 142 156 157 157 161 159 163 155 113 160 183 214 305 242 218 191 178 187 185 183 181 180 184 189 191 194
356 351 347 343 339 336 332 329 327 326 326 323 318 308 297 287 286 289 286 286 276 276 282 275 287 297 300 300 301 266 194 178 169 169 168 180 185 180 187 197 208 214 217 220 222 228 237 245 271 316 314 308 325 312 308 138 268 241 172 129 116 125 140 159 162 161 165 168 178 163 91 147 178 193 289 250 212 204 189 186 189 188 185 183 187 193 196 200
357 352 347 343 339 335 330 327 326 325 327 325 320 307 293 282 280 282 281 283 272 270 275 269 275 282 291 295 268 202 168 166 163 161 166 171 171 186 191 199 217 221 223 224 222 233 251 257 292 319 314 327 328 311 301 274 303 159 126 91 83 111 124 155 160 170 173 185 200 167 64 107 125 195 235 225 200 209 201 190 192 193 191 189 192 197 201 205
357 353 348 344 339 335 331 327 325 326 328 327 321 307 290 280 278 277 278 278 269 265 269 269 267 272 290 287 259 210 170 172 168 159 160 162 164 184 198 211 224 227 229 230 228 237 251 262 293 310 305 319 325 319 321 324 356 116 117 81 48 71 83 168 163 178 177 190 198 160 24 288 175 228 237 230 206 212 208 197 197 198 198 196 198 201 204 209
354 351 348 345 340 336 333 328 326 328 329 328 320 306 291 283 280 273 270 273 266 260 265 269 266 274 290 285 253 204 189 186 178 170 165 170 177 185 201 216 224 225 226 228 229 233 239 274 294 300 307 304 293 306 324 7 101 108 79 69 81 27 347 201 171 169 172 199 182 160 343 276 237 236 239 232 207 204 203 202 200 201 203 201 203 208 207 210
353 350 347 345 342 338 334 329 327 329 331 329 319 304 293 287 281 269 267 269 262 259 266 268 270 280 279 274 222 195 199 192 186 182 173 175 176 189 207 215 230 229 226 224 220 227 241 284 301 303 308 287 281 307 332 34 89 93 49 48 77 56 300 244 175 156 159 214 178 159 294 270 264 249 232 217 207 201 198 202 202 203 205 206 208 212 213 212
355 351 348 346 344 340 334 330 329 331 335 329 317 305 298 292 281 268 267 263 257 262 268 267 270 282 278 275 212 194 201 199 195 189 185 185 167 175 180 198 239 229 226 223 217 223 242 286 300 298 304 295 304 338 12 18 23 49 78 340 336 172 266 289 184 165 158 189 177 161 299 257 285 278 217 202 203 200 197 201 205 205 206 208 211 215 218 216
357 354 352 348 345 341 336 332 331 336 339 329 322 318 311 305 290 273 267 256 255 262 263 266 262 272 282 277 207 193 204 209 202 199 203 200 160 154 117 69 258 224 221 216 215 226 244 296 306 294 318 329 11 61 40 22 359 357 61 240 253 203 264 309 209 183 162 127 186 197 277 241 302 324 190 190 197 196 195 198 204 208 208 209 213 217 220 219
357 355 353 351 348 343 338 334 334 341 343 332 334 342 335 328 292 213 183 204 255 264 261 261 260 274 267 236 192 192 206 214 213 215 213 207 191 169 144 50 52 215 213 207 223 234 246 285 280 274 3 32 67 76 41 9 339 335 18 30 252 220 197 240 281 203 164 130 190 219 258 239 298 32 168 185 195 193 193 198 202 207 209 212 215 219 223 225
355 354 353 353 351 345 341 338 338 347 351 340 347 12 6 15 136 157 147 129 289 267 269 255 243 281 255 212 188 185 195 214 222 225 220 213 212 209 220 274 14 249 210 204 226 209 216 247 141 340 4 19 30 71 74 286 289 314 314 319 298 276 225 205 250 198 170 159 174 186 246 250 263 192 180 190 194 194 198 201 201 206 210 214 218 221 225 228
352 353 352 353 353 348 343 341 343 355 1 349 348 358 20 53 126 159 179 277 277 254 265 243 213 224 246 204 187 188 203 221 226 227 222 214 217 226 230 251 316 286 164 171 223 164 154 352 41 308 315 335 34 123 156 197 205 265 264 254 269 284 275 216 223 197 171 164 184 184 223 248 225 200 204 198 197 200 204 204 202 206 210 214 219 224 226 230
349 350 350 351 353 350 345 344 348 1 9 6 342 272 2 19 42 216 279 284 273 257 254 249 244 259 270 244 205 218 227 222 224 226 218 210 215 222 229 243 281 325 104 145 216 84 94 308 268 237 234 220 189 179 185 195 207 252 256 258 261 266 282 263 245 197 167 160 213 200 226 262 210 214 220 197 196 204 207 208 206 206 209 214 219 224 227 232
346 348 348 349 352 352 346 344 351 8 16 19 13 151 64 41 41 305 308 298 281 267 260 252 252 259 260 248 253 335 294 215 211 218 211 205 208 209 218 216 128 36 285 163 213 15 81 226 245 211 214 203 190 199 202 217 226 242 247 278 286 255 266 305 323 184 165 152 250 188 235 267 233 218 217 183 186 207 208 206 209 209 210 214 219 224 230 235
344 345 345 346 351 353 346 342 348 16 29 36 56 89 80 54 37 331 325 302 295 293 273 251 245 252 248 241 250 282 296 220 189 206 205 196 196 196 190 150 114 170 300 45 51 8 20 250 241 208 201 164 178 187 143 299 251 243 274 304 309 277 244 340 9 150 159 127 322 168 207 261 257 219 205 183 190 212 212 210 214 212 210 214 220 226 231 236
343 343 344 344 348 353 346 340 341 10 35 58 68 78 74 47 24 351 330 284 295 300 277 248 242 249 245 244 240 218 222 203 162 194 195 186 187 190 169 131 112 136 25 59 143 128 291 240 230 207 105 72 328 109 63 347 291 255 287 290 293 295 239 296 360 89 131 82 52 153 199 275 301 261 219 200 204 216 220 219 223 221 218 221 226 230 233 237
342 342 342 342 345 352 347 338 327 303 342 38 59 77 67 34 19 349 323 272 295 303 285 243 235 244 237 222 203 192 189 201 197 183 188 186 178 176 172 147 111 101 304 125 144 181 249 249 265 339 54 62 346 341 42 24 327 293 229 207 251 251 161 190 136 99 55 359 93 103 27 311 318 198 230 226 213 220 226 220 226 231 230 230 232 235 237 241
344 341 341 341 342 348 350 338 324 311 308 307 286 159 59 11 5 347 333 316 301 294 298 222 222 226 200 169 167 169 116 223 220 188 189 192 179 161 156 152 130 153 211 128 123 235 267 281 313 346 18 54 17 320 90 111 334 312 231 191 200 157 112 109 116 99 49 333 277 95 53 300 312 288 228 280 219 215 220 210 219 229 231 231 234 238 240 242
345 341 340 339 339 345 351 340 331 324 303 286 259 232 260 318 338 328 333 37 334 286 330 149 190 180 176 180 178 152 39 261 214 190 189 193 189 169 130 122 117 172 174 137 127 240 263 309 15 28 348 17 3 301 213 156 92 316 240 175 149 124 114 123 135 114 98 255 274 88 116 255 315 330 254 271 230 219 230 218 222 227 225 226 232 238 241 241
346 342 339 337 337 341 345 340 332 326 309 283 251 238 248 266 306 310 337 45 341 284 115 151 164 166 174 187 175 151 55 219 180 188 191 188 191 180 167 217 73 164 172 122 136 248 242 344 19 33 340 357 330 290 220 151 118 252 225 131 124 129 131 149 154 129 162 191 349 28 104 126 307 286 265 246 205 232 255 240 231 227 222 224 228 235 241 242
345 343 339 335 335 338 338 335 332 330 324 293 255 239 239 248 283 297 65 65 323 305 149 173 144 166 172 177 184 176 95 161 152 191 193 185 188 176 171 206 168 182 187 117 181 265 243 83 241 212 347 336 260 248 198 147 131 250 212 118 132 141 138 158 156 133 85 90 337 316 71 88 275 277 309 1 167 270 267 242 233 224 220 220 223 229 236 240
344 344 338 333 335 336 333 332 332 330 331 329 275 229 221 230 267 44 93 77 244 343 160 155 138 174 168 151 191 209 230 130 124 174 183 181 188 179 159 206 173 166 198 117 186 260 258 231 226 166 168 233 236 233 184 165 194 261 103 91 71 80 93 125 132 108 39 49 266 278 45 107 270 288 329 11 23 289 270 252 238 219 214 214 215 220 225 229
344 344 338 334 336 336 332 333 332 315 309 342 317 212 191 192 112 77 58 71 126 321 142 159 174 178 145 113 195 245 235 291 53 143 159 170 182 183 132 181 154 128 20 26 204 254 279 283 279 190 206 218 223 232 181 180 226 9 72 79 53 43 49 46 60 84 69 321 266 262 179 121 299 285 287 335 255 250 272 308 295 209 188 191 199 208 213 214
344 344 340 336 338 338 336 338 333 303 284 330 324 161 150 159 80 86 138 208 90 351 90 160 212 142 136 127 148 251 200 293 90 134 135 136 168 174 86 133 124 74 15 354 299 291 317 304 266 244 237 214 140 318 278 79 35 50 59 71 52 4 35 50 3 40 85 265 272 259 171 114 120 271 287 289 265 244 231 287 294 211 151 161 179 192 201 202
347 345 343 346 350 351 347 343 339 320 283 282 121 144 140 86 33 90 256 323 347 244 175 164 203 149 148 135 151 195 167 248 193 133 138 118 154 192 146 155 165 70 3 281 270 331 314 251 273 306 255 189 127 2 329 352 28 62 62 63 60 353 15 42 335 16 97 259 274 52 97 113 227 245 278 291 286 282 250 247 277 220 142 156 168 179 189 189
349 346 351 4 7 5 356 347 348 348 274 173 136 136 100 74 68 238 303 328 260 222 183 127 98 124 136 128 188 215 153 215 222 124 130 111 133 210 233 176 150 120 138 207 163 5 313 290 312 337 273 196 148 136 291 313 358 47 87 99 98 65 48 7 302 344 328 270 282 30 65 281 275 254 253 274 300 313 307 283 297 100 139 157 162 170 180 179
352 350 360 16 11 6 2 355 353 12 157 169 124 88 71 73 359 279 325 280 259 295 34 106 87 92 120 142 231 204 145 251 183 115 88 86 110 203 241 238 150 121 116 138 156 130 98 304 264 210 276 190 167 175 166 152 73 20 151 126 119 142 132 185 241 232 276 263 291 327 5 193 234 253 247 264 320 2 44 86 101 102 128 154 158 167 179 181
355 355 6 19 13 8 6 1 359 46 118 161 71 70 104 202 262 253 254 270 287 4 345 12 87 88 79 291 283 214 171 229 136 104 90 132 154 189 206 213 197 138 112 136 227 126 99 248 253 263 228 153 184 198 139 115 81 304 175 106 100 179 139 121 181 183 195 231 302 311 279 208 216 281 302 308 6 40 68 90 101 108 131 151 157 170 182 186
0 15 32 23 14 10 8 3 10 49 6 23 64 64 206 221 216 183 204 303 316 353 359 6 72 86 337 307 318 317 152 166 107 92 78 177 180 198 199 209 192 163 142 149 200 128 86 265 283 321 323 205 197 182 139 122 178 228 85 181 232 174 115 112 191 324 75 115 282 300 310 305 315 347 327 341 11 22 45 76 98 118 141 153 161 176 187 188
6 33 47 25 17 15 11 6 23 26 348 53 85 195 227 231 206 188 216 338 305 312 91 100 110 134 170 257 297 311 31 82 99 102 194 240 218 200 202 234 190 182 187 169 189 195 138 286 295 325 324 290 215 144 92 62 133 116 122 211 214 103 91 103 111 11 37 111 282 337 337 304 330 153 308 338 2 330 360 69 100 124 145 156 168 182 189 184
359 18 40 27 18 15 12 11 20 360 342 59 79 254 224 238 219 203 270 321 299 296 112 141 200 178 167 175 241 255 131 159 207 140 156 227 256 197 168 189 192 195 198 173 128 296 122 317 298 301 264 286 306 99 60 2 51 105 142 164 125 109 103 62 108 134 78 131 289 317 323 272 211 218 272 275 221 237 267 101 120 143 159 164 173 183 188 181
351 4 41 24 14 13 11 5 358 346 1 61 60 274 257 262 263 269 285 291 251 124 150 202 179 128 164 172 191 210 160 167 184 171 150 172 245 213 171 182 189 198 192 164 151 239 110 96 291 280 233 263 360 64 158 289 1 59 84 60 30 129 153 142 125 156 139 142 251 309 342 289 230 214 194 199 213 208 200 196 167 172 178 174 177 186 191 187
348 9 48 14 8 7 4 358 355 3 30 62 223 249 284 281 288 297 298 277 213 190 197 203 153 131 197 193 188 182 157 158 163 170 179 182 222 254 209 186 132 155 181 147 139 206 84 78 262 282 299 327 13 195 185 189 171 87 62 342 337 73 134 138 75 61 123 136 176 158 333 274 250 212 177 190 206 198 187 180 158 175 188 187 188 191 196 195
356 22 4 353 0 1 0 7 17 24 47 58 232 249 288 297 295 305 314 296 227 231 223 202 174 174 190 201 206 177 144 154 164 165 192 195 203 246 218 194 152 128 137 98 112 201 152 118 213 301 351 58 245 252 195 181 170 146 161 200 174 139 123 109 4 311 109 127 167 151 213 269 259 222 195 191 190 191 183 164 151 171 189 195 199 199 202 200
4 12 344 348 354 359 2 17 12 5 99 317 314 283 279 289 286 301 322 328 238 236 236 219 201 181 180 190 194 162 144 164 176 172 189 198 196 212 225 193 164 147 139 146 215 201 149 101 96 287 270 223 261 282 183 170 155 124 128 159 133 123 116 120 179 246 126 95 161 129 111 270 264 276 240 200 181 177 175 167 159 168 188 197 202 206 205 201
356 348 358 357 351 7 14 24 345 356 297 301 311 285 270 276 282 299 322 335 289 273 306 251 215 138 198 212 156 149 154 164 185 188 187 203 214 229 226 178 164 152 133 143 208 179 120 87 65 297 301 304 301 326 34 65 82 84 46 72 113 131 131 144 175 181 134 146 161 105 341 269 278 319 300 163 160 159 164 170 165 166 184 196 201 208 208 201
345 330 360 12 27 36 36 70 341 339 311 319 325 310 296 269 247 291 307 316 315 331 343 293 357 68 293 250 109 142 172 163 200 205 174 173 217 254 204 174 168 164 161 187 184 167 165 140 104 46 358 352 341 349 2 1 26 69 274 330 102 129 108 119 153 79 98 192 156 120 228 257 278 335 37 116 130 134 148 164 171 172 181 192 201 209 210 204
346 326 357 22 62 76 61 95 64 335 315 334 332 323 327 298 289 316 298 284 316 4 130 289 314 66 338 346 73 56 44 98 156 131 43 200 233 332 182 173 173 188 221 212 164 152 148 130 118 114 131 141 270 298 305 310 337 331 318 354 7 136 127 135 133 67 69 202 139 139 212 266 293 358 57 99 118 118 133 152 166 176 183 194 204 210 211 206
3 1 347 11 55 67 67 70 44 16 326 351 338 319 341 329 320 332 321 282 341 5 39 337 331 42 30 24 58 43 17 25 105 92 42 327 274 342 118 155 161 163 156 144 139 136 100 57 116 129 149 170 192 219 248 215 95 347 329 357 354 295 139 115 103 98 169 157 183 219 202 273 300 303 86 129 139 135 142 147 154 171 187 200 208 212 214 211
24 39 347 351 4 32 56 42 22 9 324 344 342 315 340 331 317 336 356 7 353 355 25 17 13 43 29 12 61 51 355 6 49 60 20 312 272 313 61 104 105 108 134 126 114 120 83 48 74 104 109 179 195 206 289 80 94 29 1 6 349 347 84 86 97 167 150 129 250 259 195 187 278 291 263 219 171 149 156 156 163 179 193 204 210 214 217 215
14 21 20 10 334 310 55 359 348 343 320 308 229 305 338 342 341 345 332 334 354 8 35 22 11 19 7 1 92 56 352 17 39 11 314 347 343 344 22 48 49 64 121 96 48 104 106 79 187 93 59 32 50 63 60 93 98 45 47 31 354 14 64 77 103 117 125 153 235 274 231 209 273 308 271 221 190 180 174 169 177 187 194 202 211 217 218 217
5 357 351 3 313 252 283 311 317 328 328 334 3 344 341 346 346 332 296 323 353 7 50 62 348 344 2 43 94 73 14 54 55 350 318 37 25 29 35 16 12 33 63 67 34 66 99 88 228 100 68 41 24 13 43 105 97 53 41 35 13 32 63 79 101 52 153 202 249 296 286 262 271 285 281 241 191 182 174 173 182 189 191 201 214 220 221 220
17 359 331 342 316 296 308 313 323 352 348 0 16 326 317 338 345 328 296 307 345 339 32 80 330 317 357 51 77 84 44 151 128 354 281 98 52 57 84 214 277 11 33 55 16 20 82 118 276 82 79 35 9 21 71 103 98 80 45 24 12 14 36 47 33 13 31 309 297 349 43 303 283 302 308 245 172 161 163 175 183 186 191 204 216 222 224 225
359 331 334 355 334 323 332 325 343 71 19 4 9 312 311 307 333 329 298 257 222 330 332 148 181 318 1 38 60 61 262 202 195 285 263 145 95 116 136 188 202 17 25 39 12 13 75 110 19 68 82 357 313 356 355 17 73 76 39 12 6 13 37 50 31 21 28 290 307 11 44 293 304 339 338 241 167 160 167 176 179 185 196 207 219 225 227 227
352 326 335 16 331 332 355 341 355 72 26 293 279 298 286 282 319 338 318 303 5 15 356 248 159 79 31 32 29 349 319 284 280 311 297 196 132 152 122 94 118 105 94 112 57 39 101 119 118 83 91 290 304 339 351 2 37 35 346 332 360 22 44 90 52 22 1 261 18 11 293 261 298 326 327 281 210 185 179 176 177 188 201 212 223 230 231 232